Time,TemperatureF,DewpointF,PressureIn,WindDirection,WindDirectionDegrees,WindSpeedMPH,WindSpeedGustMPH,Humidity,HourlyPrecipIn,Conditions,Clouds,dailyrainin,SoftwareType,DateUTC
2013-01-24 07:00:00,4.7,-5.3,30.95,North,0,0.0,0.0,63,0.00,,,0.00,WUHU216HW,2013-01-24 13:00:00,
2013-01-24 07:05:00,4.7,-5.3,30.94,North,0,0.0,0.0,63,0.00,,,0.00,WUHU216HW,2013-01-24 13:05:00,
2013-01-24 07:10:00,4.7,-5.3,30.94,North,0,0.0,0.0,63,0.00,,,0.00,WUHU216HW,2013-01-24 13:10:00,
2013-01-24 07:15:00,4.7,-5.3,30.95,North,0,0.0,0.0,63,0.00,,,0.00,WUHU216HW,2013-01-24 13:15:00,
2013-01-24 07:20:00,4.7,-5.3,30.95,North,0,0.0,0.0,63,0.00,,,0.00,WUHU216HW,2013-01-24 13:20:00,
2013-01-24 07:25:00,5.0,-4.9,30.95,North,0,0.0,0.0,63,0.00,,,0.00,WUHU216HW,2013-01-24 13:25:00,
2013-01-24 07:30:00,5.0,-5.3,30.95,North,0,0.0,0.0,62,0.00,,,0.00,WUHU216HW,2013-01-24 13:30:00,
2013-01-24 07:35:00,5.0,-5.3,30.94,North,0,0.0,0.0,62,0.00,,,0.00,WUHU216HW,2013-01-24 13:35:00,
2013-01-24 07:40:00,5.2,-5.1,30.95,North,0,0.0,0.0,62,0.00,,,0.00,WUHU216HW,2013-01-24 13:40:00,
2013-01-24 07:45:00,5.4,-4.6,30.95,North,0,0.0,0.0,63,0.00,,,0.00,WUHU216HW,2013-01-24 13:45:00,
2013-01-24 07:50:00,5.4,-4.6,30.96,North,0,0.0,0.0,63,0.00,,,0.00,WUHU216HW,2013-01-24 13:50:00,
2013-01-24 07:55:00,5.6,-4.4,30.97,North,0,0.0,0.0,63,0.00,,,0.00,WUHU216HW,2013-01-24 13:55:00,
2013-01-24 08:00:00,5.9,-4.4,30.98,North,0,0.0,0.0,62,0.00,,,0.00,WUHU216HW,2013-01-24 14:00:00,
2013-01-24 08:05:00,6.1,-4.2,30.98,North,0,0.0,0.0,62,0.00,,,0.00,WUHU216HW,2013-01-24 14:05:00,
2013-01-24 08:10:00,6.1,-4.2,30.98,North,0,0.0,0.0,62,0.00,,,0.00,WUHU216HW,2013-01-24 14:10:00,
2013-01-24 08:15:00,6.3,-4.0,30.98,North,0,0.0,0.0,62,0.00,,,0.00,WUHU216HW,2013-01-24 14:15:00,
2013-01-24 08:20:00,6.3,-4.3,30.97,North,0,0.0,0.0,61,0.00,,,0.00,WUHU216HW,2013-01-24 14:20:00,
2013-01-24 08:25:00,6.3,-4.3,30.98,North,0,0.0,0.0,61,0.00,,,0.00,WUHU216HW,2013-01-24 14:25:00,
2013-01-24 08:30:00,6.3,-4.7,30.98,North,0,0.0,0.0,60,0.00,,,0.00,WUHU216HW,2013-01-24 14:30:00,
2013-01-24 08:35:00,6.5,-4.5,30.98,North,0,0.0,0.0,60,0.00,,,0.00,WUHU216HW,2013-01-24 14:35:00,
2013-01-24 08:40:00,6.5,-4.5,30.98,North,0,0.0,0.0,60,0.00,,,0.00,WUHU216HW,2013-01-24 14:40:00,
2013-01-24 08:45:00,6.7,-4.3,30.99,North,0,0.0,0.0,60,0.00,,,0.00,WUHU216HW,2013-01-24 14:45:00,
2013-01-24 08:50:00,6.7,-4.3,30.99,North,0,0.0,0.0,60,0.00,,,0.00,WUHU216HW,2013-01-24 14:50:00,
2013-01-24 08:55:00,6.8,-4.1,31.00,North,0,0.0,0.0,60,0.00,,,0.00,WUHU216HW,2013-01-24 14:55:00,
2013-01-24 09:00:00,7.0,-3.9,31.00,North,0,0.0,0.0,60,0.00,,,0.00,WUHU216HW,2013-01-24 15:00:00,
2013-01-24 09:05:00,7.2,-3.8,31.00,North,0,0.0,0.0,60,0.00,,,0.00,WUHU216HW,2013-01-24 15:05:00,
2013-01-24 09:10:00,7.6,-3.5,31.00,North,0,0.0,0.0,60,0.00,,,0.00,WUHU216HW,2013-01-24 15:10:00,
2013-01-24 09:15:00,7.6,-3.5,31.01,North,0,0.0,0.0,60,0.00,,,0.00,WUHU216HW,2013-01-24 15:15:00,
2013-01-24 09:20:00,7.7,-3.7,31.00,North,0,0.0,0.0,59,0.00,,,0.00,WUHU216HW,2013-01-24 15:20:00,
2013-01-24 09:25:00,7.9,-3.5,31.00,North,0,0.0,0.0,59,0.00,,,0.00,WUHU216HW,2013-01-24 15:25:00,
2013-01-24 09:30:00,8.3,-3.2,30.99,North,0,0.0,0.0,59,0.00,,,0.00,WUHU216HW,2013-01-24 15:30:00,
2013-01-24 09:35:00,8.5,-2.7,30.99,North,0,0.0,0.0,60,0.00,,,0.00,WUHU216HW,2013-01-24 15:35:00,
2013-01-24 09:40:00,8.5,-3.1,30.99,North,0,0.0,0.0,59,0.00,,,0.00,WUHU216HW,2013-01-24 15:40:00,
2013-01-24 09:45:00,8.8,-2.3,30.99,North,0,0.0,0.0,60,0.00,,,0.00,WUHU216HW,2013-01-24 15:45:00,
2013-01-24 09:50:00,9.0,-2.2,30.98,North,0,0.0,0.0,60,0.00,,,0.00,WUHU216HW,2013-01-24 15:50:00,
2013-01-24 09:55:00,9.2,-2.0,30.98,North,0,0.0,0.0,60,0.00,,,0.00,WUHU216HW,2013-01-24 15:55:00,
2013-01-24 10:00:00,9.4,-1.8,30.98,North,0,0.0,0.0,60,0.00,,,0.00,WUHU216HW,2013-01-24 16:00:00,
2013-01-24 10:05:00,9.4,-1.8,30.97,North,0,0.0,0.0,60,0.00,,,0.00,WUHU216HW,2013-01-24 16:05:00,
2013-01-24 10:10:00,9.5,-1.6,30.97,North,0,0.0,0.0,60,0.00,,,0.00,WUHU216HW,2013-01-24 16:10:00,
2013-01-24 10:15:00,9.5,-2.0,30.97,North,0,0.0,0.0,59,0.00,,,0.00,WUHU216HW,2013-01-24 16:15:00,
2013-01-24 10:20:00,9.7,-1.4,30.97,North,0,0.0,0.0,60,0.00,,,0.00,WUHU216HW,2013-01-24 16:20:00,
2013-01-24 10:25:00,9.7,-1.4,30.97,North,0,0.0,0.0,60,0.00,,,0.00,WUHU216HW,2013-01-24 16:25:00,
2013-01-24 10:30:00,10.3,-1.2,30.97,North,0,0.0,0.0,59,0.00,,,0.00,WUHU216HW,2013-01-24 16:30:00,
2013-01-24 10:35:00,10.6,-0.9,30.97,North,0,0.0,0.0,59,0.00,,,0.00,WUHU216HW,2013-01-24 16:35:00,
2013-01-24 10:40:00,10.8,-1.2,30.97,North,0,0.0,0.0,58,0.00,,,0.00,WUHU216HW,2013-01-24 16:40:00,
2013-01-24 10:45:00,10.6,-1.3,30.97,North,0,0.0,0.0,58,0.00,,,0.00,WUHU216HW,2013-01-24 16:45:00,
2013-01-24 10:50:00,10.8,-1.5,30.97,North,0,0.0,0.0,57,0.00,,,0.00,WUHU216HW,2013-01-24 16:50:00,
2013-01-24 10:55:00,11.2,-0.8,30.97,North,0,0.0,0.0,58,0.00,,,0.00,WUHU216HW,2013-01-24 16:55:00,
2013-01-24 11:00:00,11.2,-1.2,30.96,North,0,0.0,0.0,57,0.00,,,0.00,WUHU216HW,2013-01-24 17:00:00,
2013-01-24 11:05:00,11.5,-0.5,30.97,North,0,0.0,0.0,58,0.00,,,0.00,WUHU216HW,2013-01-24 17:05:00,
2013-01-24 11:10:00,11.5,-0.5,30.96,North,0,0.0,0.0,58,0.00,,,0.00,WUHU216HW,2013-01-24 17:10:00,
2013-01-24 11:15:00,11.9,-0.2,30.96,North,0,0.0,0.0,58,0.00,,,0.00,WUHU216HW,2013-01-24 17:15:00,
2013-01-24 11:20:00,12.1,0.0,30.95,North,0,0.0,0.0,58,0.00,,,0.00,WUHU216HW,2013-01-24 17:20:00,
2013-01-24 11:25:00,12.4,0.4,30.95,North,0,0.0,0.0,58,0.00,,,0.00,WUHU216HW,2013-01-24 17:25:00,
2013-01-24 11:30:00,12.4,0.4,30.95,North,0,0.0,0.0,58,0.00,,,0.00,WUHU216HW,2013-01-24 17:30:00,
2013-01-24 11:35:00,12.4,0.4,30.95,North,0,0.0,0.0,58,0.00,,,0.00,WUHU216HW,2013-01-24 17:35:00,
2013-01-24 11:40:00,12.6,0.6,30.94,North,0,0.0,0.0,58,0.00,,,0.00,WUHU216HW,2013-01-24 17:40:00,
2013-01-24 11:45:00,13.0,0.8,30.94,North,0,0.0,0.0,58,0.00,,,0.00,WUHU216HW,2013-01-24 17:45:00,
2013-01-24 11:50:00,13.1,1.0,30.94,North,0,0.0,0.0,58,0.00,,,0.00,WUHU216HW,2013-01-24 17:50:00,
2013-01-24 11:55:00,13.3,0.8,30.93,North,0,0.0,0.0,57,0.00,,,0.00,WUHU216HW,2013-01-24 17:55:00,
2013-01-24 12:00:00,13.5,1.0,30.93,North,0,0.0,0.0,57,0.00,,,0.00,WUHU216HW,2013-01-24 18:00:00,
2013-01-24 12:05:00,13.7,0.8,30.93,North,0,0.0,0.0,56,0.00,,,0.00,WUHU216HW,2013-01-24 18:05:00,
2013-01-24 12:10:00,13.7,0.8,30.93,North,0,0.0,0.0,56,0.00,,,0.00,WUHU216HW,2013-01-24 18:10:00,
2013-01-24 12:15:00,13.9,0.9,30.94,North,0,0.0,0.0,56,0.00,,,0.00,WUHU216HW,2013-01-24 18:15:00,
2013-01-24 12:20:00,14.2,1.3,30.93,North,0,0.0,0.0,56,0.00,,,0.00,WUHU216HW,2013-01-24 18:20:00,
2013-01-24 12:25:00,14.6,1.6,30.92,North,0,0.0,0.0,56,0.00,,,0.00,WUHU216HW,2013-01-24 18:25:00,
2013-01-24 12:30:00,14.8,1.8,30.92,North,0,0.0,0.0,56,0.00,,,0.00,WUHU216HW,2013-01-24 18:30:00,
2013-01-24 12:35:00,14.8,1.8,30.92,North,0,0.0,0.0,56,0.00,,,0.00,WUHU216HW,2013-01-24 18:35:00,
2013-01-24 12:40:00,14.9,1.5,30.92,North,0,0.0,0.0,55,0.00,,,0.00,WUHU216HW,2013-01-24 18:40:00,
2013-01-24 12:45:00,14.9,1.5,30.92,North,0,0.0,0.0,55,0.00,,,0.00,WUHU216HW,2013-01-24 18:45:00,
2013-01-24 12:50:00,15.3,1.9,30.91,North,0,0.0,0.0,55,0.00,,,0.00,WUHU216HW,2013-01-24 18:50:00,
2013-01-24 12:55:00,15.5,2.1,30.91,North,0,0.0,0.0,55,0.00,,,0.00,WUHU216HW,2013-01-24 18:55:00,
2013-01-24 13:00:00,15.5,2.1,30.91,North,0,0.0,0.0,55,0.00,,,0.00,WUHU216HW,2013-01-24 19:00:00,
2013-01-24 13:05:00,15.7,1.9,30.90,North,0,0.0,0.0,54,0.00,,,0.00,WUHU216HW,2013-01-24 19:05:00,
2013-01-24 13:10:00,15.8,2.1,30.91,North,0,0.0,0.0,54,0.00,,,0.00,WUHU216HW,2013-01-24 19:10:00,
2013-01-24 13:15:00,16.0,2.3,30.90,North,0,0.0,0.0,54,0.00,,,0.00,WUHU216HW,2013-01-24 19:15:00,
2013-01-24 13:20:00,16.2,2.4,30.90,North,0,0.0,0.0,54,0.00,,,0.00,WUHU216HW,2013-01-24 19:20:00,
2013-01-24 13:25:00,16.4,2.2,30.90,North,0,0.0,0.0,53,0.00,,,0.00,WUHU216HW,2013-01-24 19:25:00,
2013-01-24 13:30:00,16.7,2.5,30.89,North,0,0.0,0.0,53,0.00,,,0.00,WUHU216HW,2013-01-24 19:30:00,
2013-01-24 13:35:00,16.9,2.7,30.89,North,0,0.0,0.0,53,0.00,,,0.00,WUHU216HW,2013-01-24 19:35:00,
2013-01-24 13:40:00,17.1,2.9,30.88,North,0,0.0,0.0,53,0.00,,,0.00,WUHU216HW,2013-01-24 19:40:00,
2013-01-24 13:45:00,17.1,2.9,30.87,North,0,0.0,0.0,53,0.00,,,0.00,WUHU216HW,2013-01-24 19:45:00,
2013-01-24 13:50:00,17.3,2.6,30.87,North,0,0.0,0.0,52,0.00,,,0.00,WUHU216HW,2013-01-24 19:50:00,
2013-01-24 13:55:00,17.3,2.6,30.87,North,0,0.0,0.0,52,0.00,,,0.00,WUHU216HW,2013-01-24 19:55:00,
2013-01-24 14:00:00,17.5,2.8,30.87,North,0,0.0,0.0,52,0.00,,,0.00,WUHU216HW,2013-01-24 20:00:00,
2013-01-24 14:05:00,17.5,2.4,30.87,North,0,0.0,0.0,51,0.00,,,0.00,WUHU216HW,2013-01-24 20:05:00,
2013-01-24 14:10:00,17.5,2.4,30.87,North,0,0.0,0.0,51,0.00,,,0.00,WUHU216HW,2013-01-24 20:10:00,
2013-01-24 14:15:00,17.3,2.3,30.86,North,0,0.0,0.0,51,0.00,,,0.00,WUHU216HW,2013-01-24 20:15:00,
2013-01-24 14:20:00,17.5,2.4,30.87,North,0,0.0,0.0,51,0.00,,,0.00,WUHU216HW,2013-01-24 20:20:00,
2013-01-24 14:25:00,17.6,2.5,30.85,North,0,0.0,0.0,51,0.00,,,0.00,WUHU216HW,2013-01-24 20:25:00,
2013-01-24 14:30:00,17.8,2.7,30.87,North,0,0.0,0.0,51,0.00,,,0.00,WUHU216HW,2013-01-24 20:30:00,
2013-01-24 14:35:00,18.2,3.1,30.87,North,0,0.0,0.0,51,0.00,,,0.00,WUHU216HW,2013-01-24 20:35:00,
2013-01-24 14:40:00,18.4,3.3,30.87,North,0,0.0,0.0,51,0.00,,,0.00,WUHU216HW,2013-01-24 20:40:00,
2013-01-24 14:45:00,18.5,3.3,30.86,North,0,0.0,0.0,51,0.00,,,0.00,WUHU216HW,2013-01-24 20:45:00,
2013-01-24 14:50:00,18.5,3.3,30.86,North,0,0.0,0.0,51,0.00,,,0.00,WUHU216HW,2013-01-24 20:50:00,
2013-01-24 14:55:00,18.4,3.3,30.85,North,0,0.0,0.0,51,0.00,,,0.00,WUHU216HW,2013-01-24 20:55:00,
2013-01-24 15:00:00,18.5,3.3,30.85,North,0,0.0,0.0,51,0.00,,,0.00,WUHU216HW,2013-01-24 21:00:00,
2013-01-24 15:05:00,18.5,3.3,30.84,North,0,0.0,0.0,51,0.00,,,0.00,WUHU216HW,2013-01-24 21:05:00,
2013-01-24 15:10:00,18.4,3.3,30.84,North,0,0.0,0.0,51,0.00,,,0.00,WUHU216HW,2013-01-24 21:10:00,
2013-01-24 15:15:00,18.4,3.3,30.84,North,0,0.0,0.0,51,0.00,,,0.00,WUHU216HW,2013-01-24 21:15:00,
2013-01-24 15:20:00,18.4,2.8,30.83,North,0,0.0,0.0,50,0.00,,,0.00,WUHU216HW,2013-01-24 21:20:00,
2013-01-24 15:25:00,18.4,3.3,30.83,North,0,0.0,0.0,51,0.00,,,0.00,WUHU216HW,2013-01-24 21:25:00,
2013-01-24 15:30:00,18.4,3.3,30.83,North,0,0.0,0.0,51,0.00,,,0.00,WUHU216HW,2013-01-24 21:30:00,
2013-01-24 15:35:00,18.5,3.3,30.82,North,0,0.0,0.0,51,0.00,,,0.00,WUHU216HW,2013-01-24 21:35:00,
2013-01-24 15:40:00,18.5,3.3,30.81,North,0,0.0,0.0,51,0.00,,,0.00,WUHU216HW,2013-01-24 21:40:00,
2013-01-24 15:45:00,18.5,3.3,30.81,North,0,0.0,0.0,51,0.00,,,0.00,WUHU216HW,2013-01-24 21:45:00,
2013-01-24 15:50:00,18.7,3.5,30.82,North,0,0.0,0.0,51,0.00,,,0.00,WUHU216HW,2013-01-24 21:50:00,
2013-01-24 15:55:00,18.7,3.5,30.82,North,0,0.0,0.0,51,0.00,,,0.00,WUHU216HW,2013-01-24 21:55:00,
2013-01-24 16:00:00,18.7,3.5,30.82,North,0,0.0,0.0,51,0.00,,,0.00,WUHU216HW,2013-01-24 22:00:00,
2013-01-24 16:05:00,18.7,3.5,30.82,North,0,0.0,0.0,51,0.00,,,0.00,WUHU216HW,2013-01-24 22:05:00,
2013-01-24 16:10:00,18.7,3.5,30.81,North,0,0.0,0.0,51,0.00,,,0.00,WUHU216HW,2013-01-24 22:10:00,
2013-01-24 16:15:00,18.9,3.7,30.82,North,0,0.0,0.0,51,0.00,,,0.00,WUHU216HW,2013-01-24 22:15:00,
2013-01-24 16:20:00,18.9,3.7,30.81,North,0,0.0,0.0,51,0.00,,,0.00,WUHU216HW,2013-01-24 22:20:00,
2013-01-24 16:25:00,18.9,3.7,30.80,North,0,0.0,0.0,51,0.00,,,0.00,WUHU216HW,2013-01-24 22:25:00,
2013-01-24 16:30:00,18.9,3.7,30.80,North,0,0.0,0.0,51,0.00,,,0.00,WUHU216HW,2013-01-24 22:30:00,
2013-01-24 16:35:00,18.9,3.7,30.79,North,0,0.0,0.0,51,0.00,,,0.00,WUHU216HW,2013-01-24 22:35:00,
2013-01-24 16:40:00,18.9,3.7,30.79,North,0,0.0,0.0,51,0.00,,,0.00,WUHU216HW,2013-01-24 22:40:00,
2013-01-24 16:45:00,18.9,3.7,30.79,North,0,0.0,0.0,51,0.00,,,0.00,WUHU216HW,2013-01-24 22:45:00,
2013-01-24 16:50:00,18.9,3.7,30.79,North,0,0.0,0.0,51,0.00,,,0.00,WUHU216HW,2013-01-24 22:50:00,
2013-01-24 16:55:00,18.9,3.7,30.78,North,0,0.0,0.0,51,0.00,,,0.00,WUHU216HW,2013-01-24 22:55:00,
2013-01-24 17:00:00,18.9,3.7,30.78,North,0,0.0,0.0,51,0.00,,,0.00,WUHU216HW,2013-01-24 23:00:00,
2013-01-24 17:05:00,18.9,3.7,30.78,North,0,0.0,0.0,51,0.00,,,0.00,WUHU216HW,2013-01-24 23:05:00,
2013-01-24 17:10:00,19.1,3.9,30.78,North,0,0.0,0.0,51,0.00,,,0.00,WUHU216HW,2013-01-24 23:10:00,
2013-01-24 17:15:00,19.1,3.9,30.77,North,0,0.0,0.0,51,0.00,,,0.00,WUHU216HW,2013-01-24 23:15:00,
2013-01-24 17:20:00,19.1,3.9,30.77,North,0,0.0,0.0,51,0.00,,,0.00,WUHU216HW,2013-01-24 23:20:00,
2013-01-24 17:25:00,19.1,3.9,30.77,North,0,0.0,0.0,51,0.00,,,0.00,WUHU216HW,2013-01-24 23:25:00,
2013-01-24 17:30:00,19.1,4.2,30.77,North,0,0.0,0.0,52,0.00,,,0.00,WUHU216HW,2013-01-24 23:30:00,
2013-01-24 17:35:00,19.1,4.2,30.76,North,0,0.0,0.0,52,0.00,,,0.00,WUHU216HW,2013-01-24 23:35:00,
2013-01-24 17:40:00,18.9,4.1,30.77,North,0,0.0,0.0,52,0.00,,,0.00,WUHU216HW,2013-01-24 23:40:00,
2013-01-24 17:45:00,19.1,4.2,30.77,North,0,0.0,0.0,52,0.00,,,0.00,WUHU216HW,2013-01-24 23:45:00,
2013-01-24 17:50:00,19.1,4.2,30.77,North,0,0.0,0.0,52,0.00,,,0.00,WUHU216HW,2013-01-24 23:50:00,
2013-01-24 17:55:00,19.1,4.2,30.77,North,0,0.0,0.0,52,0.00,,,0.00,WUHU216HW,2013-01-24 23:55:00,
2013-01-24 18:00:00,19.1,4.2,30.77,North,0,0.0,0.0,52,0.00,,,0.00,WUHU216HW,2013-01-25 00:00:00,
2013-01-24 18:05:00,19.1,4.7,30.76,North,0,0.0,0.0,53,0.00,,,0.00,WUHU216HW,2013-01-25 00:05:00,
2013-01-24 18:10:00,19.1,4.7,30.76,North,0,0.0,0.0,53,0.00,,,0.00,WUHU216HW,2013-01-25 00:10:00,
2013-01-24 21:00:00,19.3,7.9,30.69,North,0,0.0,0.0,61,0.00,,,0.00,WUHU216HW,2013-01-25 03:00:00,
2013-01-24 21:05:00,19.3,7.9,30.69,North,0,0.0,0.0,61,0.00,,,0.00,WUHU216HW,2013-01-25 03:05:00,